sat.trackr.live / text

‹ back to catalog

STARLINK-35491

NORAD 66113 · 2025-236AD

PAYLOAD ACTIVE UNKNOWN

§ Identity

Operator
Country
US
Launch date
2025-10-19
Launch site
AFWTR
Launch vehicle
Mass (kg)
RCS (m²)

Purposes: comms

External: N2YO · Heavens-Above · Gunter

§ Orbital elements

Epoch: 2026-09-20T07:36:24.981120Z

Period
93.85 min
Inclination
53.1585°
Eccentricity
0.0001203
Mean motion
15.34404352 rev/d
Perigee alt
461.9 km
Apogee alt
463.5 km
Semi-major
6,840.8 km
B*
4.9335e-4
RAAN
278.3801°
Arg perigee
79.5556°
Mean anomaly
280.5582°
Rev number
5,276

§ Raw data

STARLINK-354911 66113U 25236AD  26263.31695580  .00016331  00000+0  49335-3 0  99912 66113  53.1585 278.3801 0001203  79.5556 280.5582 15.34404352 52769

JSON: /api/v1/satellites/66113 · /tle

For live sub-satellite position, see the globe view (requires WebGL).

§ Visibility from observer

Set your observer location to see the next 7 days of passes ≥ 10°. The values pass through the URL so the page stays shareable.

No JS? Fill the form by hand. The geolocation button needs JavaScript.